Location: Forli
(44.2227°N, 12.0407°E)
Time: 03:51:40
(UTC+02:00)

DX 1 - Pass Details

Date: 15 April 2026
Orbit: 593 x 604 km, 98.4° (Epoch: 19 May)

Event Time Altitude Azimuth Distance (km) Brightness Sun altitude
Rises 04:49:29 0° 6° (N) 2,843 ? -17.1°
Reaches altitude 10° 04:51:45 10° 359° (N) 1,936 ? -16.7°
Maximum altitude 04:55:40 40° 290° (WNW) 884 ? -16.1°
Enters shadow 04:57:07 29° 246° (WSW) 1,087 ? -15.9°
